{"data":{"norad_id":68125,"epoch":"2026-05-25T03:20:48.619968Z","epoch_age_seconds":63161,"freshness":"FRESH","line1":"1 68125U 26044AA  26145.13945162  .00019582  00000+0  60718-3 0  9996","line2":"2 68125  97.2854 105.8398 0001102  76.9065 283.2300 15.33452270 13307","mean_motion":15.3345227,"eccentricity":0.0001102,"inclination_deg":97.2854,"raan_deg":105.8398,"arg_perigee_deg":76.9065,"mean_anomaly_deg":283.23,"bstar":0.00060718,"rev_number":1330,"period_min":93.905759453472,"perigee_km":464.7673729869,"apogee_km":466.27571533003,"semimajor_km":6843.6585441585,"source":"CELESTRAK","updated_at":"2026-05-25T13:38:21.846051Z"}}